Juneau, WI

8:41 AM CDT on July 22, 2017 (GMT -0500)
Dodge County

Weather History for KUNU - September, 2013

Change the Weather History Date:

Friday, September 27, 2013

  Actual Average Record
Temperature  
Mean Temperature 64 °F -  
Max Temperature 78 °F 64 °F 82 °F (1986)
Min Temperature 52 °F 45 °F 29 °F (1991)
Growing Degree Days 14 (Base 50)    
Moisture  
Dew Point 48 °F    
Average Humidity 62    
Maximum Humidity 99    
Minimum Humidity 28    
Precipitation  
Precipitation 0.00 in - - ()
Sea Level Pressure  
Sea Level Pressure 30.12 in    
Wind  
Wind Speed 8 mph (SE)    
Max Wind Speed 15 mph    
Max Gust Speed 24 mph    
Visibility 10 miles    
Events      
Averages and records for this station are not official NWS values.
T = Trace of Precipitation, MM = Missing Value Source: NWS Daily Summary

Daily Weather History Graph

Daily Weather History Graph

Search for Another Location

Airport or City:

Trip Planner

Search our weather history database for the weather conditions in past years. The results will help you decide how hot, cold, wet, or windy it might be!

Date:

Astronomy

Sep. 27, 2013 Rise Set
Actual Time 6:47 AM CDT 6:42 PM CDT
Civil Twilight 6:19 AM CDT 7:11 PM CDT
Nautical Twilight 5:46 AM CDT 7:44 PM CDT
Astronomical Twilight 5:12 AM CDT 8:17 PM CDT
Moon No Moon Rise 2:30 PM CDT (9/27)
Length of Visible Light 12h 51m
Length of Day
11h 54m
Last Quarter, 45% of the Moon is Illuminated
Sep 27
Last Quarter
Oct 4
New
Oct 11
First Quarter
Oct 18
Full
Oct 26
Last Quarter

Hourly Weather History & Observations

Time (CDT) Temp. Dew Point Humidity Pressure Visibility Wind Dir Wind Speed Gust Speed Precip Events Conditions
12:15 AM 54.9 °F 48.6 °F 79% 30.11 in 10.0 mi ESE 6.9 mph - N/A   Clear
12:35 AM 54.7 °F 48.6 °F 80% 30.11 in 10.0 mi ESE 6.9 mph - N/A   Clear
12:55 AM 55.0 °F 48.4 °F 78% 30.11 in 10.0 mi ESE 8.1 mph - N/A   Clear
1:15 AM 55.0 °F 48.6 °F 79% 30.11 in 10.0 mi ESE 6.9 mph - N/A   Clear
1:35 AM 55.0 °F 48.6 °F 79% 30.12 in 10.0 mi ESE 5.8 mph - N/A   Clear
1:55 AM 54.9 °F 49.1 °F 81% 30.12 in 10.0 mi ESE 6.9 mph - N/A   Clear
2:15 AM 55.4 °F 49.5 °F 80% 30.12 in 10.0 mi ESE 6.9 mph - N/A   Clear
2:35 AM 55.0 °F 50.0 °F 83% 30.12 in 10.0 mi ESE 6.9 mph - N/A   Clear
2:55 AM 54.9 °F 50.4 °F 85% 30.12 in 10.0 mi ESE 6.9 mph - N/A   Clear
3:15 AM 54.5 °F 50.4 °F 86% 30.12 in 10.0 mi ESE 5.8 mph - N/A   Clear
3:35 AM 53.1 °F 49.8 °F 89% 30.12 in 10.0 mi ESE 5.8 mph - N/A   Clear
3:55 AM 52.9 °F 50.5 °F 92% 30.12 in 10.0 mi ESE 6.9 mph - N/A   Clear
4:35 AM 53.1 °F 51.6 °F 95% 30.13 in 10.0 mi ESE 8.1 mph - N/A   Clear
4:55 AM 52.9 °F 51.8 °F 96% 30.13 in 10.0 mi ESE 6.9 mph - N/A   Clear
5:15 AM 52.9 °F 51.8 °F 96% 30.13 in 10.0 mi SE 6.9 mph - N/A   Clear
5:35 AM 52.9 °F 51.6 °F 95% 30.14 in 10.0 mi ESE 6.9 mph - N/A   Clear
5:55 AM 52.7 °F 51.8 °F 97% 30.15 in 10.0 mi SE 6.9 mph - N/A   Clear
6:15 AM 52.7 °F 51.8 °F 97% 30.15 in 7.0 mi ESE 5.8 mph - N/A   Clear
6:35 AM 52.9 °F 52.7 °F 99% 30.15 in 7.0 mi ESE 5.8 mph - N/A   Clear
6:55 AM 52.7 °F 52.3 °F 99% 30.16 in 5.0 mi ESE 5.8 mph - N/A   Clear
7:15 AM 52.9 °F 52.7 °F 99% 30.16 in 5.0 mi SE 3.5 mph - N/A   Clear
7:35 AM 54.3 °F 54.1 °F 99% 30.16 in 7.0 mi ESE 6.9 mph - N/A   Clear
7:55 AM 55.9 °F 54.7 °F 96% 30.16 in 10.0 mi SE 4.6 mph - N/A   Clear
8:15 AM 57.6 °F 53.8 °F 87% 30.16 in 10.0 mi SE 4.6 mph - N/A   Clear
8:35 AM 58.5 °F 53.2 °F 83% 30.16 in 10.0 mi SE 5.8 mph - N/A   Clear
8:55 AM 60.6 °F 53.1 °F 76% 30.17 in 10.0 mi SE 5.8 mph - N/A   Clear
9:15 AM 62.6 °F 52.5 °F 70% 30.17 in 10.0 mi SE 6.9 mph - N/A   Clear
9:35 AM 64.4 °F 51.8 °F 64% 30.17 in 10.0 mi SE 9.2 mph - N/A   Clear
9:55 AM 65.5 °F 50.4 °F 58% 30.17 in 10.0 mi SE 9.2 mph - N/A   Clear
10:15 AM 66.7 °F 50.0 °F 55% 30.17 in 10.0 mi SE 9.2 mph - N/A   Clear
10:35 AM 68.5 °F 48.9 °F 49% 30.16 in 10.0 mi SSE 10.4 mph - N/A   Clear
10:55 AM 69.8 °F 48.6 °F 47% 30.16 in 10.0 mi SSE 8.1 mph - N/A   Clear
11:15 AM 71.4 °F 49.5 °F 46% 30.16 in 10.0 mi SSE 10.4 mph - N/A   Clear
11:35 AM 72.5 °F 48.2 °F 42% 30.16 in 10.0 mi SE 10.4 mph - N/A   Clear
11:55 AM 73.6 °F 47.8 °F 40% 30.15 in 10.0 mi SE 11.5 mph 16.1 mph N/A   Clear
12:15 PM 74.8 °F 47.3 °F 38% 30.15 in 10.0 mi SE 13.8 mph - N/A   Clear
12:35 PM 74.7 °F 46.2 °F 36% 30.14 in 10.0 mi SSE 11.5 mph - N/A   Clear
12:55 PM 75.6 °F 45.9 °F 35% 30.13 in 10.0 mi SE 9.2 mph - N/A   Clear
1:15 PM 75.7 °F 47.7 °F 37% 30.12 in 10.0 mi ESE 12.7 mph - N/A   Clear
1:35 PM 76.3 °F 45.0 °F 33% 30.12 in 10.0 mi SE 10.4 mph - N/A   Clear
1:55 PM 76.8 °F 46.0 °F 34% 30.11 in 10.0 mi ESE 11.5 mph - N/A   Clear
2:15 PM 77.2 °F 46.0 °F 33% 30.10 in 10.0 mi SE 15.0 mph 19.6 mph N/A   Clear
2:35 PM 77.9 °F 44.1 °F 30% 30.10 in 10.0 mi SSE 15.0 mph - N/A   Clear
2:55 PM 77.9 °F 44.6 °F 31% 30.09 in 10.0 mi SE 11.5 mph - N/A   Clear
3:15 PM 77.7 °F 43.7 °F 30% 30.09 in 10.0 mi SSE 13.8 mph 24.2 mph N/A   Clear
3:35 PM 77.9 °F 42.1 °F 28% 30.09 in 10.0 mi SSE 13.8 mph 23.0 mph N/A   Clear
3:55 PM 77.9 °F 43.3 °F 29% 30.08 in 10.0 mi SSE 13.8 mph - N/A   Clear
4:15 PM 77.4 °F 44.2 °F 31% 30.07 in 10.0 mi SE 15.0 mph 20.7 mph N/A   Clear
4:35 PM 77.0 °F 45.0 °F 32% 30.07 in 10.0 mi SE 12.7 mph - N/A   Clear
4:55 PM 76.5 °F 45.1 °F 33% 30.07 in 10.0 mi SE 13.8 mph - N/A   Clear
5:15 PM 75.6 °F 48.2 °F 38% 30.07 in 10.0 mi ESE 12.7 mph - N/A   Clear
5:35 PM 74.1 °F 48.0 °F 40% 30.07 in 10.0 mi ESE 11.5 mph 17.3 mph N/A   Clear
5:55 PM 72.9 °F 47.5 °F 40% 30.08 in 10.0 mi SE 10.4 mph - N/A   Clear
6:15 PM 71.1 °F 46.6 °F 42% 30.08 in 10.0 mi ESE 10.4 mph - N/A   Clear
6:35 PM 68.9 °F 46.8 °F 45% 30.07 in 10.0 mi ESE 9.2 mph - N/A   Clear
6:55 PM 66.9 °F 47.1 °F 49% 30.07 in 10.0 mi ESE 6.9 mph - N/A   Clear
7:15 PM 65.1 °F 48.4 °F 55% 30.07 in 10.0 mi ESE 6.9 mph - N/A   Clear
7:35 PM 64.0 °F 49.1 °F 58% 30.07 in 10.0 mi ESE 8.1 mph - N/A   Clear
7:55 PM 63.0 °F 48.2 °F 59% 30.08 in 10.0 mi ESE 9.2 mph - N/A   Clear
8:15 PM 62.1 °F 48.0 °F 60% 30.08 in 10.0 mi ESE 6.9 mph - N/A   Clear
8:35 PM 61.9 °F 46.9 °F 58% 30.09 in 10.0 mi ESE 8.1 mph - N/A   Clear
8:55 PM 61.3 °F 46.4 °F 58% 30.09 in 10.0 mi ESE 6.9 mph - N/A   Clear
9:15 PM 60.3 °F 46.4 °F 60% 30.09 in 10.0 mi ESE 8.1 mph - N/A   Clear
9:35 PM 59.9 °F 46.0 °F 60% 30.09 in 10.0 mi ESE 8.1 mph - N/A   Clear
9:55 PM 59.2 °F 45.5 °F 60% 30.09 in 10.0 mi ESE 8.1 mph - N/A   Clear
10:15 PM 58.3 °F 45.5 °F 62% 30.09 in 10.0 mi ESE 6.9 mph - N/A   Clear
10:35 PM 58.3 °F 45.5 °F 62% 30.09 in 10.0 mi ESE 8.1 mph - N/A   Clear
10:55 PM 58.1 °F 45.9 °F 64% 30.09 in 10.0 mi ESE 8.1 mph - N/A   Clear
11:15 PM 58.3 °F 46.4 °F 65% 30.08 in 10.0 mi ESE 9.2 mph - N/A   Clear
11:35 PM 58.8 °F 46.8 °F 64% 30.08 in 10.0 mi ESE 10.4 mph - N/A   Clear
11:55 PM 59.5 °F 46.6 °F 62% 30.08 in 10.0 mi ESE 9.2 mph - N/A   Clear